Location: Melbourne
(37.8666°S, 145.1333°E)
Time: 14:09:26
(UTC+10:00)

Daily predictions for brighter satellites

Satellite Brightness Start Highest point End
(mag) Time Altitude Azimuth Time Altitude Azimuth Time Altitude Azimuth
SKYMED 2 3.6 17:30:35 10° NNE 17:34:57 79° ESE 17:39:22 10° S
Cosmos 1898 Rocket 3.6 17:29:47 10° N 17:35:02 71° ENE 17:40:19 10° SSE
MSX 3.9 17:29:16 10° SSE 17:35:08 81° ENE 17:40:53 10° N
Cosmos 1743 3.7 17:32:49 10° NNE 17:36:12 28° E 17:39:38 10° SSE
IDEFIX/ARIANE 42P 3.2 17:31:08 10° S 17:36:21 61° WSW 17:41:32 10° NNW
Cosmos 1500 3.6 17:32:37 10° NNW 17:36:23 68° W 17:40:12 10° S
Okean-O 2.9 17:32:17 10° SSE 17:36:41 50° E 17:41:00 10° N
Iridium 2 3.7 17:39:40 10° S 17:43:35 72° E 17:47:26 10° N
Cosmos 1844 Rocket 4.4 17:42:30 10° SSE 17:44:06 11° SE 17:45:42 10° ESE
Cosmos 2150 Rocket 4.5 17:40:59 10° N 17:45:47 41° ENE 17:50:42 10° SSE
Cosmos 1666 3.0 17:44:43 10° NNE 17:48:19 45° E 17:51:59 10° SSE
Okean O Rocket 4.0 17:48:39 10° SSW 17:52:00 22° WSW 17:55:20 10° WNW
Cosmos 1937 Rocket 3.5 17:46:49 10° N 17:52:06 73° ENE 17:57:29 10° SSE
SJ 16-02 2.6 17:52:58 10° NNE 17:56:26 23° E 17:59:26 12° SE
CZ-4C R/B 4.2 17:55:37 10° NNE 18:01:11 21° ENE 18:05:12 14° ESE
Okean 2 3.8 17:57:54 10° SSW 18:02:08 71° W 18:06:19 10° N
Cosmos 1455 Rocket 4.1 18:01:55 10° NE 18:05:34 25° E 18:08:39 13° SE
Cosmos 1484 Rocket 2.6 18:02:53 10° SSE 18:06:40 67° ENE 18:10:24 10° N
ATLAS 5 CENTAUR R/B 3.8 18:06:14 10° S 18:08:05 12° SSE 18:08:38 11° SE
Cosmos 990 Rocket 4.2 18:04:11 10° NNW 18:09:26 77° WSW 18:14:43 10° SSE
Lacrosse 5 rocket 1.8 18:06:47 10° WNW 18:10:30 51° SW 18:13:35 14° SSE
Cosmos 1892 Rocket 4.1 18:09:53 10° SSE 18:13:54 34° ESE 18:17:53 10° NE
Cosmos 1242 Rocket 3.0 18:11:57 10° NNW 18:15:25 62° W 18:19:00 10° S
Cosmos 2263 Rocket 2.2 18:09:51 10° SSW 18:15:36 86° ESE 18:21:19 10° NNE
Cosmos 2298 Rocket 4.1 18:11:38 10° NNW 18:16:59 88° WSW 18:22:24 10° SSE
Cosmos 1975 3.3 18:13:18 10° NNW 18:17:19 64° W 18:21:26 10° S
USA 267 3.3 18:13:28 13° SE 18:19:34 88° SW 18:26:10 10° NW
METEOR-M 4.5 18:17:51 10° SSE 18:23:02 43° E 18:28:07 10° N
Aureole 2 Rocket 4.3 18:20:25 10° NW 18:23:29 29° WSW 18:26:47 10° S
Cosmos 2322 Rocket 3.1 18:19:08 10° NW 18:24:39 50° WSW 18:30:14 10° SSE
Cosmos 1842 3.8 18:21:29 10° S 18:25:12 36° ESE 18:28:51 10° NE
YAOGAN 1 4.0 18:26:12 20° ENE 18:26:12 20° ENE 18:28:59 10° NE
Okean 1-7 Rocket 3.6 18:23:30 10° S 18:28:10 85° E 18:32:45 10° N
Thor Agena Rocket 4.2 18:24:08 10° NE 18:28:29 29° ESE 18:32:54 10° S
Atlas Centaur 2 3.6 18:24:26 10° NW 18:30:37 33° N 18:34:25 16° ENE
Shenzhou-11 Module 2.5 18:28:34 10° W 18:31:30 45° SSW 18:32:09 38° SSE
Cosmos 1544 Rocket 3.6 18:32:02 10° N 18:36:21 55° E 18:39:15 20° SSE
Cosmos 372 Rocket 4.2 18:31:26 10° N 18:36:24 48° ENE 18:39:06 25° SE
USA 32 4.5 18:32:28 10° NNE 18:37:20 39° E 18:40:23 21° SSE
Cosmos 972 Rocket 4.2 18:32:01 10° SSW 18:38:17 80° ESE 18:43:47 10° NNE
ATLAS 2AS CENTAUR R/B 2.5 18:33:35 10° SSW 18:40:00 85° ESE 18:46:57 10° NNE
Cosmos 2219 Rocket 3.1 18:39:38 10° NNE 18:44:15 27° ENE 18:44:15 27° ENE
CORIOLIS 4.0 18:42:26 11° SSE 18:47:38 72° ENE 18:52:59 10° N
ALOS 2.3 18:49:33 32° SE 18:51:33 59° E 18:56:10 10° N
USA 234 3.9 18:49:51 30° ESE 18:51:42 36° SSE 18:57:35 10° SSW
SL-16 R/B 4.0 18:48:09 10° WNW 18:53:00 28° WSW 18:57:55 10° S
CSL-04 Rocket 3.6 18:50:02 14° SSE 18:54:59 75° ENE 19:00:32 10° N
Ariane Rocket 3.0 18:53:40 36° SE 18:55:30 55° E 19:00:29 10° N
Cosmos 468 4.5 18:50:50 10° S 18:56:06 59° ESE 19:01:19 10° NNE
Cosmos 2360 Rocket 2.6 18:51:27 10° NNW 18:57:05 63° WSW 19:01:35 16° SSE
Aureole 1 Rocket 3.6 18:54:11 10° S 18:57:52 41° SSE 18:57:52 41° SSE
Cosmos 158 Rocket 4.0 18:57:05 10° SSW 19:02:30 84° WNW 19:07:54 10° NNE
CZ-3C R/B 4.5 19:00:48 10° NNW 19:05:07 19° NNE 19:15:38 10° NE
GPS 2-04 Rocket1 3.4 19:01:40 10° W 19:05:20 44° NNW 19:05:46 42° N
CZ-4 R/B 1.3 19:05:24 58° SSE 19:06:11 90° SSE 19:10:19 10° NNW
Tiangong 2 3.3 19:03:55 10° NW 19:04:49 18° NW 19:04:49 18° NW
Cosmos 2333 Rocket 2.9 19:02:03 10° N 19:06:22 35° NE 19:06:22 35° NE
COSMOS 2428 2.7 19:02:05 10° N 19:07:43 63° ENE 19:08:53 51° ESE
SMAP 3.8 19:03:19 10° S 19:07:52 52° WSW 19:12:23 10° NNW
Cosmos 2322 3.9 19:02:56 10° NNW 19:08:36 71° WSW 19:11:51 26° SSE
FENGYUN 3A 3.5 19:11:46 32° SSE 19:14:25 88° ENE 19:19:49 10° NNW
Cosmos 1634 Rocket 4.4 19:10:11 10° SSW 19:16:29 64° W 19:22:44 10° N
NOSS 3-4 (A) 3.6 19:11:28 10° SSW 19:18:26 56° SE 19:18:59 54° ESE
NOSS 3-4 (C) 3.6 19:11:37 10° SSW 19:18:32 55° SE 19:19:00 54° ESE
Cosmos 1844 Rocket 2.8 19:23:17 10° SSW 19:28:04 61° S 19:28:04 61° S
Cosmos 1125 Rocket 4.0 19:25:23 10° NNW 19:30:32 59° WSW 19:31:59 43° SSW
SJ 16-02 3.2 19:31:05 10° NW 19:34:52 28° WSW 19:36:30 22° SSW
Meteor 1-15 Rocket 4.4 19:34:45 10° NNW 19:40:26 72° W 19:41:31 58° SSW
CZ-4C R/B 2.9 19:41:12 10° NW 19:49:17 82° WSW 19:50:26 67° SSE
ATLAS 5 CENTAUR R/B 4.0 19:48:51 10° SSW 19:50:13 18° SSW 19:50:13 18° SSW
Atlas Centaur 2 3.9 20:13:40 10° WNW 20:17:03 27° NW 20:17:03 27° NW
Cosmos 2219 Rocket 3.9 20:22:46 10° NW 20:26:02 29° WNW 20:26:02 29° WNW
USA 234 4.4 20:37:13 37° WSW 20:37:13 37° WSW 20:40:57 10° SW
